Theta_e
327 317 314 317 308 310 306 307 309 310 312 316 314 315 326 328 324 321 348 352 354 357 361 360 362 362 363 364 363 363 363 363 363 363 361 360 359 361 362 362 362 358 357 357 357 356 355 355 354
318 315 316 313 306 303 306 308 308 312 313 312 314 326 331 328 342 342 345 352 355 358 360 357 362 362 362 362 362 361 362 362 362 361 360 359 360 361 362 362 361 358 357 358 357 356 356 355 354
313 311 310 307 305 304 306 310 311 311 311 310 310 313 333 334 344 344 350 353 356 358 358 358 362 361 362 361 361 361 361 361 361 360 360 359 361 361 361 361 360 358 357 358 357 356 358 358 357
310 311 307 301 301 306 309 311 311 308 311 310 309 309 316 347 346 349 353 354 354 355 355 361 361 360 361 361 360 360 360 360 360 359 359 360 361 360 359 359 359 357 357 357 357 357 357 357 357
310 307 300 298 299 303 306 309 309 308 308 308 307 308 313 348 352 353 352 353 351 353 353 359 361 360 360 361 360 359 359 358 359 359 359 360 360 359 359 359 359 358 357 357 356 357 357 357 357
304 304 296 295 298 300 304 308 308 308 307 308 308 309 324 351 350 351 353 352 353 353 354 357 361 360 359 360 360 359 357 357 358 358 359 359 359 359 359 359 358 358 357 357 356 356 356 355 355
302 301 297 296 295 297 301 307 305 307 305 307 309 309 334 346 351 353 353 354 353 354 354 355 356 360 359 359 358 358 357 356 356 357 357 358 359 359 359 358 358 357 357 356 356 355 354 353 352
306 303 296 297 296 297 303 304 305 306 305 310 313 314 322 346 351 352 353 353 353 354 354 353 355 354 354 355 358 358 357 357 356 357 357 357 357 357 357 356 357 355 355 354 354 353 352 352 350
303 298 295 296 296 298 303 302 305 307 306 307 320 329 337 349 350 349 350 350 350 352 354 353 352 354 353 352 355 357 357 357 357 356 357 354 350 353 354 353 355 355 354 354 354 354 353 352 351
300 296 296 300 301 300 302 302 303 304 304 305 308 340 347 347 348 346 346 346 347 349 352 353 353 352 353 351 355 353 352 352 352 352 352 348 351 352 350 353 355 355 355 354 354 354 353 351 344
299 295 299 299 301 302 301 302 304 303 302 305 305 309 343 346 346 346 346 346 346 349 351 353 356 356 352 350 354 352 352 353 354 354 355 353 350 352 351 351 353 355 354 349 349 348 345 343 343
295 298 300 301 302 302 301 303 302 303 304 307 307 308 311 343 345 345 345 346 346 348 351 354 356 356 355 352 353 353 352 353 351 353 355 352 349 349 348 348 349 353 351 351 350 345 346 345 345
295 297 298 300 301 301 302 300 301 302 306 308 308 308 309 312 345 348 348 349 348 348 351 353 355 356 356 355 353 353 353 353 352 353 353 352 349 349 349 348 347 347 348 348 348 346 345 344 343
299 299 299 300 300 300 298 299 301 302 306 306 306 308 309 310 314 331 348 350 350 350 351 353 353 355 357 355 357 354 355 355 354 353 352 353 351 351 349 349 348 348 348 347 347 346 344 342 342
299 296 298 298 298 298 300 296 297 302 304 304 306 307 309 310 311 313 329 349 353 353 355 354 355 356 356 356 356 355 355 355 354 354 355 353 353 352 351 349 349 349 349 349 348 347 345 343 342
296 296 294 301 299 299 299 294 300 303 302 302 305 306 308 310 311 313 316 320 335 354 354 356 354 354 356 356 356 356 355 355 355 355 355 354 354 353 351 348 349 350 350 348 345 344 341 341 342
296 293 291 296 299 299 297 296 300 303 302 303 305 305 307 309 312 315 315 317 321 329 347 353 355 354 354 357 355 356 357 355 355 355 354 351 354 353 350 347 348 351 349 348 345 344 344 342 343
293 290 293 293 296 297 296 296 300 301 301 302 304 306 307 309 312 315 317 316 319 322 341 352 353 356 357 356 355 355 354 354 355 354 352 352 355 354 352 349 349 348 347 347 346 345 346 344 344
295 295 293 295 300 296 296 297 299 302 302 302 303 305 307 308 312 314 316 316 317 320 331 346 351 354 351 349 347 346 346 351 352 353 354 354 354 355 353 351 350 351 349 349 348 346 345 346 346
297 295 293 295 298 296 296 296 300 302 303 303 304 305 306 309 311 313 316 316 316 321 328 344 349 352 352 350 348 349 349 349 349 350 351 353 354 355 353 353 351 351 348 346 346 343 342 342 341
296 294 295 293 296 298 296 294 298 302 304 305 306 308 309 309 310 313 315 316 317 319 329 340 349 350 351 352 349 345 347 344 343 344 346 349 348 350 351 349 349 348 347 346 341 339 341 339 334
292 297 296 294 292 288 297 287 296 299 301 303 305 307 307 309 311 312 315 315 317 319 327 338 346 348 349 350 347 346 343 341 341 344 346 345 343 344 344 344 346 347 346 345 345 346 341 338 336
294 299 296 295 293 292 292 289 294 299 298 301 305 307 309 310 311 311 312 316 316 319 330 339 345 347 348 346 349 346 345 344 343 342 342 341 342 343 342 344 344 344 343 344 343 343 341 341 338
301 298 297 296 294 286 291 290 291 295 298 302 305 307 309 309 309 311 320 322 322 327 335 340 343 340 341 343 346 347 345 343 341 338 338 339 341 342 343 342 343 343 340 338 339 341 342 341 339
298 295 287 285 285 285 294 290 293 299 302 302 303 307 311 312 317 325 327 328 331 332 336 339 338 335 343 345 346 345 344 344 342 341 342 341 339 339 340 341 341 338 339 340 339 338 338 339 337
295 296 288 281 283 287 293 288 293 301 304 308 310 311 319 323 327 328 329 330 332 333 336 336 336 334 338 340 341 343 343 340 340 340 338 339 339 339 339 339 339 339 338 336 337 336 336 337 336
295 292 298 290 292 287 290 294 299 306 306 309 314 318 321 321 325 328 331 332 331 333 333 334 334 334 337 338 338 338 341 341 339 339 338 337 335 334 336 338 338 336 334 333 333 334 333 335 336
298 300 290 291 283 282 288 290 292 302 304 311 314 316 317 321 323 324 324 325 329 331 333 333 334 333 334 337 337 335 335 335 335 334 333 333 333 333 334 331 330 330 330 331 332 331 330 330 331
295 293 295 295 292 286 284 289 303 303 306 308 310 313 315 318 320 320 321 324 326 328 330 331 333 333 332 333 333 332 330 329 327 325 325 327 327 329 328 327 328 329 330 332 332 331 330 329 330
300 297 297 290 288 291 291 292 306 306 305 310 310 311 311 315 317 321 323 324 326 327 328 328 328 327 327 326 323 321 321 320 318 318 318 319 318 319 318 319 321 320 319 320 319 319 319 321 318
Wind_Speed
6 6 1 2 4 2 3 4 3 2 1 3 12 5 4 4 3 5 2 12 19 22 20 20 19 18 18 18 19 18 19 18 19 19 19 17 17 16 14 14 13 14 15 14 14 15 15 15 14
5 2 1 1 5 6 6 4 10 3 7 11 4 2 5 1 3 8 14 12 21 21 19 20 19 20 19 20 19 18 19 18 18 18 18 17 17 15 14 13 13 13 15 14 13 13 14 14 13
3 3 2 3 4 11 6 9 6 3 6 6 6 3 3 3 4 11 4 19 21 20 19 18 19 19 19 20 20 19 18 18 18 18 18 17 16 15 13 13 13 13 15 14 13 13 12 12 11
2 2 3 5 14 9 7 1 6 1 0 1 5 6 2 5 4 8 18 22 21 20 19 19 19 19 19 19 19 19 19 18 18 18 17 16 15 14 13 13 12 12 12 13 12 10 9 9 8
2 1 4 6 14 5 6 2 4 3 5 7 5 4 5 4 7 15 19 19 22 20 18 19 19 19 19 20 19 19 18 18 18 17 17 16 14 13 12 12 11 11 11 11 11 9 8 8 7
3 1 4 15 16 3 5 6 5 6 3 6 4 5 1 4 7 14 18 19 19 19 18 18 17 18 18 19 19 19 19 18 17 17 16 15 13 12 10 9 9 9 10 9 9 8 7 7 6
4 4 8 7 3 6 5 5 8 6 3 3 4 3 2 3 7 14 16 16 17 17 16 16 17 16 16 16 17 17 18 17 16 15 15 14 13 12 10 9 8 7 7 7 7 7 6 6 5
2 3 5 8 9 7 3 4 1 5 4 6 2 4 1 2 8 13 14 15 17 16 16 16 15 16 15 14 15 15 16 17 16 15 14 13 12 12 11 8 8 8 7 7 6 6 5 6 5
3 6 12 13 9 5 3 3 2 1 2 4 3 3 5 10 13 14 15 14 14 14 15 15 15 15 15 14 14 15 17 16 15 14 13 11 10 11 11 8 9 10 9 9 8 7 6 6 6
8 8 12 5 9 3 4 1 3 2 3 2 3 3 5 9 12 15 17 15 17 17 16 14 14 14 14 11 13 13 13 12 12 12 14 10 10 9 9 9 10 9 9 8 8 8 7 7 6
7 12 10 7 9 5 4 5 2 5 8 5 3 8 0 7 9 12 14 16 18 16 14 15 13 13 14 12 10 8 7 8 9 13 12 11 9 9 9 7 8 8 10 7 8 8 7 8 6
8 11 14 8 10 9 10 4 8 9 10 3 8 7 6 7 11 12 14 15 16 17 15 15 16 14 13 9 10 10 9 9 9 11 14 10 8 9 9 8 9 8 7 9 8 6 7 8 8
13 9 8 16 16 16 12 14 13 16 15 12 16 13 12 10 10 12 12 12 13 16 16 17 16 15 14 13 10 10 10 10 10 11 13 11 10 10 9 9 8 8 8 8 7 7 7 7 8
3 16 17 11 9 6 12 15 15 13 17 14 10 12 9 10 11 9 11 14 16 15 18 18 19 17 16 14 13 10 10 10 10 11 12 14 10 9 10 9 9 8 8 7 7 7 7 7 7
4 8 10 11 7 10 12 25 23 16 17 14 15 17 15 13 10 13 14 14 17 16 15 18 20 19 17 18 15 12 11 11 11 11 13 14 13 11 11 9 8 8 7 8 7 8 7 7 7
6 5 15 11 13 6 12 27 2 12 18 19 16 15 14 16 14 14 11 11 13 13 17 16 15 19 20 17 14 12 12 12 11 11 10 13 14 13 11 9 8 7 6 6 6 6 7 7 7
8 12 10 10 11 12 18 14 3 10 16 14 13 12 13 14 12 13 12 11 11 13 13 15 17 19 20 17 13 14 14 12 11 11 10 11 14 15 11 8 7 7 6 6 6 6 7 6 6
11 7 11 10 8 16 20 22 18 8 8 12 14 15 13 14 16 13 12 12 11 10 11 13 14 15 15 11 9 8 10 10 10 10 9 11 11 13 11 9 8 5 6 7 6 7 5 6 5
3 15 13 6 17 11 18 18 16 17 16 17 15 15 15 16 16 13 10 9 10 10 11 15 15 16 12 10 9 8 9 8 7 8 11 11 10 11 11 9 8 8 8 7 6 4 6 5 3
17 16 13 8 12 8 14 16 11 13 14 16 16 16 17 15 14 14 11 12 12 12 13 14 16 15 15 11 10 6 8 5 6 6 7 8 10 10 9 9 8 8 5 7 6 6 3 4 5
20 20 16 12 6 13 12 22 18 14 17 12 17 17 17 18 17 15 12 12 11 13 15 17 17 17 15 14 8 6 7 4 6 5 5 6 6 6 7 7 5 6 6 7 5 5 8 6 3
18 15 15 15 12 16 12 12 14 11 17 17 16 17 17 17 17 17 12 11 14 15 13 14 15 15 14 15 12 13 8 7 4 5 4 4 4 5 5 5 6 7 6 7 7 7 7 6 8
13 13 17 16 15 12 15 12 15 7 15 15 15 14 17 19 19 17 13 10 11 12 11 11 11 12 11 12 11 10 7 5 6 6 7 6 5 5 5 6 6 7 6 7 9 9 10 9 9
9 11 15 13 13 16 19 14 13 16 16 15 13 10 13 14 13 11 8 9 8 9 10 11 12 10 11 11 11 10 9 8 6 6 5 4 4 4 6 6 6 6 6 8 8 9 10 9 7
16 14 5 8 9 17 9 14 19 8 9 6 11 14 5 5 11 10 11 11 11 12 11 11 13 12 12 11 10 9 9 9 8 8 5 5 4 4 5 6 7 6 7 8 7 7 7 7 8
23 18 8 11 11 10 14 13 15 12 22 10 8 4 4 5 8 10 11 12 13 14 13 14 14 12 11 11 11 10 9 5 5 5 4 3 3 3 3 4 5 7 6 5 6 6 5 6 7
18 21 11 5 2 7 13 17 10 4 5 4 6 6 7 8 10 13 14 12 12 13 14 15 14 12 12 12 10 9 8 7 6 6 4 3 3 0 3 4 4 3 3 4 4 4 6 6 8
11 18 12 4 8 10 8 16 9 9 5 5 7 6 8 11 12 13 11 11 10 12 13 15 15 15 13 12 11 10 11 10 10 10 9 7 6 6 8 8 6 4 3 3 1 1 2 4 5
13 11 8 9 6 8 7 7 5 5 2 5 6 9 9 13 12 13 14 12 14 13 15 16 17 18 16 15 14 15 14 13 12 11 11 11 11 10 10 9 8 7 6 5 4 4 4 4 5
23 17 14 9 9 6 7 4 2 1 3 7 9 12 13 16 15 15 16 17 17 18 18 17 17 18 17 16 16 15 14 13 13 12 12 11 11 11 11 10 10 9 9 8 8 7 7 7 6
Wind_Direction
321 320 292 231 225 246 237 233 292 250 305 5 301 233 289 314 321 343 92 152 146 148 154 158 156 149 143 139 134 134 136 137 138 139 140 141 141 142 146 144 143 143 144 143 140 140 141 142 140
328 306 139 120 227 225 224 247 234 259 321 319 324 224 238 315 91 108 131 158 154 148 154 159 159 152 147 140 137 138 136 137 138 139 141 144 146 147 150 152 149 152 150 149 148 146 145 142 141
295 357 207 219 207 229 232 210 235 239 305 342 347 333 318 352 120 157 145 153 152 151 155 157 159 153 149 143 141 140 140 140 140 142 146 148 148 150 155 154 155 158 157 156 156 152 152 148 145
300 146 111 227 222 228 227 212 163 319 271 278 333 283 272 29 133 152 144 151 154 154 157 152 156 154 150 146 144 143 144 142 144 146 149 148 150 152 156 158 162 164 163 163 159 153 155 148 142
40 167 195 237 240 249 231 231 216 274 296 315 356 324 306 68 106 129 147 157 158 157 159 158 157 155 154 149 149 147 147 146 147 149 149 151 151 153 157 161 163 167 164 164 163 159 156 151 152
159 272 196 231 224 225 235 231 243 262 292 312 323 307 292 101 137 141 152 161 162 157 159 157 156 155 155 152 153 152 151 149 151 150 151 151 150 152 155 160 165 168 166 166 168 162 157 160 168
227 202 227 253 245 240 222 209 224 229 221 218 323 265 78 126 132 143 151 154 160 160 160 161 162 158 154 156 155 154 151 150 152 152 151 149 149 150 156 161 165 166 165 165 169 169 168 174 187
177 231 222 232 225 241 191 195 120 185 179 323 293 246 164 110 145 142 144 153 159 164 166 165 166 166 166 163 156 154 154 153 154 155 152 152 152 156 162 165 168 173 181 184 183 184 191 198 205
169 222 228 231 206 206 188 201 107 305 230 306 358 308 325 142 148 151 144 154 162 170 173 171 171 172 173 169 164 156 158 158 157 158 156 156 180 181 174 183 165 181 190 194 196 199 209 218 226
211 224 218 228 222 210 168 251 331 308 327 198 196 66 113 154 171 169 162 166 172 175 179 177 182 178 176 173 168 172 169 172 175 175 175 183 186 192 197 191 194 196 201 202 202 206 218 224 234
188 230 219 203 218 232 229 259 246 268 269 239 84 17 171 172 186 185 175 178 181 178 180 183 186 184 185 181 176 179 178 175 178 179 179 188 188 190 197 199 202 209 205 217 206 210 223 224 229
230 233 234 227 221 235 225 242 252 237 245 209 305 318 300 231 188 198 186 180 181 183 186 186 189 187 193 188 190 183 185 182 184 185 185 186 192 195 200 205 207 209 213 216 219 220 228 233 240
231 231 231 244 255 261 266 243 256 258 252 267 289 286 267 250 234 201 195 188 187 190 190 193 191 194 191 195 194 194 194 191 192 190 193 196 199 199 201 208 212 216 217 222 225 230 232 237 241
229 229 243 250 245 248 262 263 230 244 258 251 247 260 262 242 226 234 206 195 197 194 196 193 193 195 193 197 196 193 199 195 201 200 200 207 206 202 205 208 213 218 221 226 234 234 240 244 251
233 255 240 229 237 250 262 269 238 231 244 249 250 261 265 245 234 223 213 204 206 205 200 197 197 195 195 198 196 197 199 199 205 211 208 208 212 211 215 217 217 218 220 230 234 242 245 255 257
209 218 240 223 210 218 197 257 308 215 212 231 238 242 248 250 230 231 221 211 209 208 203 199 197 198 199 201 196 199 199 202 206 210 209 212 218 221 219 224 226 222 224 228 236 243 248 253 257
205 235 226 252 214 205 202 264 315 196 195 216 228 231 231 245 226 228 229 235 215 207 205 200 199 201 202 204 202 204 202 206 206 207 210 208 221 219 222 227 227 226 233 238 239 240 246 258 268
213 220 237 242 193 221 217 242 252 239 212 235 249 253 243 231 230 235 245 234 227 215 210 203 198 201 198 194 197 202 205 209 211 213 213 216 223 218 220 225 222 213 237 239 239 249 241 251 259
218 231 238 235 239 243 239 252 247 257 242 239 243 250 248 248 247 248 242 238 234 229 208 201 191 193 185 184 184 189 202 208 206 219 220 221 221 218 222 233 232 228 234 242 241 241 240 241 236
234 245 234 270 267 255 269 267 256 251 257 233 231 232 242 244 249 245 224 208 213 220 210 198 198 186 191 190 196 196 191 210 222 232 234 226 225 223 229 235 234 231 226 220 204 199 215 229 198
225 234 238 240 262 268 280 274 259 243 252 236 234 232 231 235 237 243 241 213 208 211 200 199 195 188 190 188 161 141 143 145 188 209 220 222 233 236 232 222 220 217 224 224 200 190 217 247 218
220 221 224 231 235 246 232 270 248 250 248 249 235 232 230 235 235 238 227 208 205 212 203 198 191 187 186 181 183 185 197 181 173 168 184 187 197 202 210 210 214 220 227 235 233 232 227 214 238
231 204 208 216 223 241 222 252 264 242 248 247 258 240 237 234 228 220 220 214 201 194 196 187 176 174 173 177 187 187 181 149 131 139 159 165 164 177 211 223 234 236 238 247 239 233 233 233 247
199 232 223 229 231 239 232 233 264 239 246 251 260 277 255 239 216 206 170 165 162 157 158 156 155 153 154 162 166 177 171 141 136 146 148 158 172 197 221 237 243 249 247 247 250 249 242 249 247
210 203 173 199 209 237 195 219 242 240 235 228 296 303 299 215 174 160 157 142 133 137 136 140 145 149 147 151 153 150 145 140 152 148 153 174 200 224 247 243 247 249 249 253 254 257 263 262 259
203 197 199 206 205 217 204 231 236 228 257 275 269 273 162 151 131 138 125 122 127 126 136 136 137 131 131 129 125 122 126 133 131 137 142 147 198 237 254 249 243 253 258 257 260 256 260 260 247
189 209 202 294 244 219 212 244 260 209 238 166 141 149 120 121 132 116 108 106 124 128 128 122 115 110 113 113 117 114 121 120 109 103 98 98 88 187 262 235 234 250 267 261 250 256 256 241 239
193 181 188 182 216 218 213 234 236 192 192 145 136 133 118 111 102 91 81 83 93 98 106 109 112 108 109 106 99 95 91 91 88 87 82 81 76 72 73 77 76 88 116 108 31 320 272 255 245
191 185 188 176 244 229 236 213 340 264 149 143 138 112 97 105 100 101 97 102 100 104 107 110 110 108 106 104 102 96 93 89 85 80 73 72 71 68 70 66 65 57 44 35 20 8 336 298 287
199 177 190 199 187 235 280 235 11 38 139 149 124 113 106 100 99 104 107 107 107 106 102 100 102 102 102 102 98 95 94 91 85 81 76 73 70 63 60 58 62 62 55 47 43 44 35 35 35